Location: Monfort
(47.1967°N, 0.2115°W)
Time: 11:49:05
(UTC+00:00)

USA 307 - Pass Details

Date: 24 October 2020
Orbit: 569 x 579 km, 54.0° (Epoch: 23 November)

Event Time Altitude Azimuth Distance (km) Brightness Sun altitude
Rises 18:25:01 0° 294° (WNW) 2,789 7.6 -15.6°
Reaches altitude 10° 18:27:26 10° 303° (WNW) 1,888 6.4 -16.0°
Maximum altitude 18:31:26 37° 12° (NNE) 907 3.8 -16.7°
Enters shadow 18:32:54 28° 54° (NE) 1,093 3.9 -17.0°
